Location: Gu�tanj
(46.5431°N, 14.9692°E)
Time: 17:29:19
(UTC+00:00)

USA 307 - Pass Details

Date: 03 March 2021
Orbit: 567 x 577 km, 54.0° (Epoch: 13 April)

Event Time Altitude Azimuth Distance (km) Brightness Sun altitude
Rises 18:17:31 0° 285° (WNW) 2,785 8.2 -16.0°
Reaches altitude 10° 18:20:01 10° 297° (WNW) 1,885 6.7 -16.4°
Maximum altitude 18:23:48 30° 359° (N) 1,054 4.3 -17.0°
Enters shadow 18:25:53 20° 44° (NE) 1,359 4.5 -17.4°
